Wind_Speed
20 18 17 17 17 18 19 20 22 23 24 24 24 25 26 26 26 27 28 29 30 31 31 33 34 33 35 35 36 37 36 35 40 45 42 35 38 40 40 37 36 34 36
18 18 19 19 18 18 19 20 22 24 24 24 24 25 26 26 27 27 29 29 30 32 33 35 36 35 36 36 36 38 39 38 38 42 47 46 42 33 36 36 33 32 35
15 16 18 21 20 19 20 21 23 24 24 23 23 25 26 27 26 26 27 29 30 33 34 36 37 37 39 39 38 39 39 39 37 38 43 37 37 38 38 34 28 29 28
14 16 18 18 18 19 21 22 23 24 25 24 24 25 25 24 24 24 25 28 30 32 34 38 39 37 38 38 39 39 39 37 37 39 38 38 35 32 30 30 27 23 24
15 16 16 16 17 19 19 22 24 25 23 23 24 24 22 22 23 25 28 32 35 40 43 46 45 44 40 34 35 37 37 37 38 37 36 37 33 28 29 25 25 27 24
15 15 15 16 18 18 20 23 23 23 23 23 23 22 23 23 23 25 27 31 34 34 40 36 40 37 38 36 34 35 38 39 39 37 35 35 30 27 28 24 24 24 25
13 14 15 16 17 19 21 21 22 22 22 22 21 22 23 22 23 24 27 29 31 31 30 30 32 38 34 35 34 32 32 34 38 41 44 43 41 36 30 29 28 26 28
12 14 14 17 19 20 20 20 21 20 22 23 25 23 22 23 23 23 25 27 27 26 26 26 26 29 34 35 36 36 37 34 34 35 41 41 37 31 34 33 33 32 32
12 14 16 18 18 19 20 20 18 21 23 25 25 21 21 22 21 22 23 26 26 27 26 26 25 26 27 30 33 38 39 40 35 32 31 32 31 32 33 32 34 31 33
14 16 17 17 18 19 19 18 20 20 23 24 21 18 19 20 20 21 22 24 27 27 27 27 24 22 24 24 32 32 37 41 39 37 35 32 30 30 29 31 32 34 33
15 16 17 16 16 16 17 21 18 21 22 22 18 18 20 20 22 20 21 25 26 27 29 27 24 24 26 25 24 23 36 35 33 30 31 31 31 26 24 26 28 29 29
15 16 16 15 14 15 18 17 19 19 22 18 19 21 22 22 21 19 20 23 24 27 29 30 24 27 25 23 23 24 24 24 33 36 33 28 27 24 22 20 19 20 22
14 16 16 13 14 14 17 19 17 20 19 20 21 24 27 25 25 22 21 24 25 25 29 24 26 22 21 20 17 18 17 23 14 29 35 35 33 29 25 24 22 23 26
15 15 14 14 17 16 16 14 17 19 21 21 25 27 27 28 27 23 27 28 29 28 26 28 23 19 17 16 16 14 12 12 13 24 22 31 27 26 23 23 25 23 24
14 15 14 16 16 18 17 15 17 17 18 23 23 25 25 28 27 25 25 26 26 25 24 26 19 17 18 17 16 15 14 11 12 13 13 9 26 27 27 23 20 22 22
14 14 15 16 20 18 18 20 16 15 16 17 18 19 22 23 23 23 25 24 22 19 21 19 19 18 19 19 18 18 16 14 14 14 13 15 14 9 12 20 14 16 19
14 15 16 18 20 17 19 21 23 18 15 16 17 18 19 20 21 24 22 21 17 17 18 18 18 18 19 19 18 18 18 16 15 14 13 13 14 15 17 22 23 23 24
13 13 14 18 19 17 18 20 18 19 23 23 19 19 17 19 21 22 19 20 16 17 19 18 18 18 18 18 18 18 18 17 15 15 15 14 13 13 14 16 20 23 24
12 12 17 21 19 17 18 16 16 17 20 22 22 21 19 22 21 20 17 17 18 19 20 19 19 18 18 18 18 18 18 18 17 17 15 14 13 13 14 15 17 19 21
11 12 16 18 19 17 15 15 15 18 20 21 23 24 23 27 28 24 23 18 18 19 18 19 19 18 18 18 18 19 19 19 19 18 17 16 15 15 16 16 17 19 22
13 18 18 17 16 15 14 14 17 18 18 20 21 22 20 21 23 24 23 20 19 17 18 19 20 18 19 19 19 19 20 21 20 20 20 20 21 20 19 19 19 20 23
18 20 18 17 15 14 12 14 15 15 16 18 21 22 21 21 22 23 23 21 17 16 16 18 19 19 20 20 21 21 23 24 22 25 29 25 24 24 24 27 25 24 25
19 18 16 15 14 12 10 12 13 13 15 18 20 23 24 24 23 23 23 22 17 16 16 18 19 21 20 19 20 23 28 24 24 28 29 26 27 28 29 30 30 29 29
20 17 16 15 14 11 10 11 12 13 16 18 20 22 23 25 25 25 23 22 20 18 17 19 20 22 22 20 20 23 24 23 31 29 27 27 29 30 33 32 31 31 32
20 17 16 15 13 11 9 10 12 15 17 20 22 23 24 25 27 25 25 22 21 22 20 20 21 23 23 20 20 23 25 26 27 28 27 28 31 32 30 30 29 28 28
18 16 16 14 13 11 10 11 12 15 19 22 22 23 24 26 29 26 25 26 24 23 22 21 22 23 22 21 21 25 28 28 29 29 29 32 33 33 33 33 31 30 30
Wind_Direction
298 295 290 291 292 291 294 299 301 299 296 292 290 291 294 296 296 294 291 289 287 286 285 282 280 279 274 271 269 270 268 267 271 279 282 286 285 290 292 289 289 285 284
292 295 297 299 298 296 300 303 306 304 299 294 295 296 296 298 298 292 290 289 287 286 286 285 284 281 279 276 272 269 269 267 268 276 279 285 289 292 291 294 291 292 289
276 279 286 290 297 303 305 309 309 308 299 299 299 298 301 301 297 294 291 290 287 286 287 286 285 281 276 273 270 268 268 269 269 270 277 282 283 288 294 296 294 297 297
277 279 283 288 295 300 303 306 309 308 306 303 300 300 303 303 299 299 298 297 297 296 295 290 285 280 277 274 271 268 265 263 266 267 272 277 282 287 288 294 296 300 298
275 282 290 293 294 294 302 305 303 306 307 304 300 303 306 304 303 301 301 300 299 299 299 296 291 284 277 268 267 268 264 262 263 265 267 272 273 276 282 289 288 294 297
280 292 298 298 295 300 301 300 307 310 308 303 303 304 302 304 303 294 291 293 300 301 300 310 298 286 274 262 258 259 261 264 261 259 262 265 269 273 282 280 286 291 300
290 299 301 296 298 301 302 307 313 311 312 314 311 306 300 300 302 299 297 301 303 305 305 309 308 285 287 280 275 261 259 257 258 262 263 264 268 268 271 272 281 288 294
298 302 298 293 301 305 307 311 315 320 321 319 315 308 301 301 304 302 303 305 309 309 314 314 308 300 285 279 273 271 269 263 258 259 256 259 265 270 273 272 275 283 279
301 295 298 307 306 310 313 317 320 323 321 318 314 313 313 311 312 307 306 310 315 315 317 316 312 301 297 285 262 263 267 267 267 262 263 266 266 262 260 266 266 271 277
295 303 310 309 308 313 321 320 321 319 318 319 319 323 324 321 321 312 310 316 319 318 318 315 312 309 304 307 267 261 257 264 267 268 266 262 261 262 259 254 258 262 268
301 311 313 310 315 324 324 318 318 318 319 319 321 330 335 325 320 315 312 322 325 321 318 315 313 311 310 304 294 291 266 272 265 264 266 266 267 264 259 257 253 254 257
308 314 315 316 322 325 319 319 319 317 316 325 329 334 332 328 329 321 316 322 323 320 319 318 316 314 309 306 300 283 277 285 262 260 260 260 261 262 259 256 250 252 258
314 317 323 323 324 322 323 317 316 318 318 325 328 331 326 331 331 330 326 325 323 319 318 319 314 314 312 312 313 302 290 279 259 258 259 265 267 267 265 265 261 256 254
314 321 326 324 323 312 312 310 316 317 323 325 327 323 324 327 330 332 331 327 328 325 328 320 320 315 319 321 323 323 311 286 287 271 283 261 262 264 262 257 256 268 259
316 322 325 320 323 318 312 315 316 312 317 317 317 320 322 322 328 325 323 325 324 324 317 317 324 332 334 336 338 338 332 326 309 295 274 299 259 262 262 262 255 259 254
315 319 325 328 322 318 322 320 321 313 314 316 317 318 316 318 322 323 325 323 324 327 320 328 334 336 337 338 338 338 340 335 326 316 301 293 282 259 256 245 252 247 249
314 318 329 316 320 323 320 321 325 337 337 330 327 326 324 322 328 330 330 328 326 327 334 337 336 337 338 338 338 337 334 334 332 328 318 311 298 283 272 264 267 267 269
316 318 314 322 324 320 322 318 318 325 333 342 348 338 333 333 337 334 335 328 340 346 344 342 338 339 341 342 343 342 338 335 335 333 324 316 307 299 291 279 267 267 265
321 327 334 321 318 319 309 317 323 327 332 329 342 349 357 352 338 338 340 345 346 339 340 341 346 347 347 347 345 344 343 343 340 334 331 323 315 308 293 282 280 274 272
324 324 321 317 321 320 322 324 330 334 331 338 341 342 354 347 339 349 348 346 343 336 342 345 347 348 347 346 344 343 341 340 339 338 336 331 325 319 307 295 283 275 274
333 334 328 318 321 324 328 332 336 331 336 342 345 348 336 332 342 350 347 347 339 345 348 346 347 345 347 348 348 347 344 339 336 335 333 331 327 319 317 311 295 278 272
336 330 328 326 326 327 330 333 332 341 346 350 354 356 353 349 349 348 351 350 349 349 349 344 343 343 339 338 340 338 339 339 334 334 331 321 322 317 316 311 302 290 280
333 330 328 327 328 328 332 341 347 356 359 358 357 359 0 356 352 349 351 352 345 346 348 344 341 340 336 330 329 334 342 340 336 335 331 323 317 316 311 303 297 288 280
334 331 331 330 330 328 330 342 352 0 358 356 358 356 354 354 353 353 348 348 346 337 337 340 340 339 337 333 330 337 338 337 338 329 321 320 317 312 306 301 290 282 276
332 332 331 328 327 323 318 335 348 353 351 350 352 352 350 352 353 351 350 344 341 340 334 333 336 338 337 333 330 332 338 342 333 326 323 318 313 313 310 304 296 287 276
327 327 328 327 324 318 307 315 329 338 343 345 344 346 346 347 350 350 352 349 342 338 335 331 334 338 338 337 335 337 342 339 329 327 323 318 319 322 320 312 303 293 285
Height
1463 1463 1463 1463 1462 1461 1460 1458 1456 1454 1453 1452 1450 1448 1446 1444 1441 1439 1436 1435 1433 1431 1430 1428 1425 1425 1424 1423 1422 1421 1419 1418 1409 1402 1403 1402 1399 1399 1396 1394 1393 1392 1391
1460 1459 1459 1459 1458 1456 1454 1452 1451 1448 1448 1446 1443 1441 1439 1436 1434 1431 1429 1428 1426 1424 1422 1420 1417 1416 1414 1414 1413 1411 1409 1409 1406 1397 1394 1394 1393 1393 1389 1386 1386 1385 1382
1457 1457 1456 1457 1454 1450 1448 1446 1445 1444 1442 1439 1437 1435 1432 1429 1427 1425 1423 1420 1418 1415 1413 1411 1407 1407 1405 1404 1403 1401 1400 1399 1398 1394 1387 1388 1387 1386 1382 1379 1377 1375 1374
1454 1453 1453 1452 1450 1446 1444 1442 1440 1439 1436 1432 1431 1429 1426 1424 1421 1419 1416 1413 1410 1407 1404 1400 1397 1395 1393 1393 1392 1391 1391 1390 1390 1386 1383 1380 1380 1378 1377 1373 1370 1370 1366
1449 1448 1447 1447 1444 1443 1439 1437 1436 1433 1429 1428 1425 1422 1420 1418 1415 1412 1409 1406 1402 1398 1394 1389 1386 1384 1382 1383 1382 1381 1381 1381 1381 1378 1376 1373 1372 1372 1371 1369 1367 1365 1363
1444 1443 1442 1441 1441 1437 1435 1432 1429 1426 1424 1422 1419 1416 1413 1411 1409 1407 1405 1401 1397 1393 1386 1381 1376 1374 1374 1373 1373 1373 1372 1371 1370 1370 1368 1365 1365 1366 1366 1364 1363 1361 1358
1440 1439 1438 1438 1435 1432 1430 1426 1423 1421 1419 1416 1413 1411 1408 1405 1403 1401 1397 1394 1389 1385 1380 1375 1368 1365 1364 1362 1362 1364 1364 1363 1362 1360 1357 1356 1357 1359 1361 1358 1356 1354 1349
1436 1435 1436 1433 1429 1427 1424 1421 1419 1417 1413 1411 1408 1405 1402 1399 1397 1394 1391 1387 1382 1378 1373 1368 1363 1358 1356 1354 1352 1351 1351 1352 1353 1352 1349 1348 1348 1350 1352 1353 1351 1349 1345
1432 1433 1430 1426 1424 1422 1419 1417 1416 1412 1410 1406 1403 1400 1397 1394 1391 1388 1385 1381 1376 1371 1366 1362 1357 1352 1348 1347 1345 1342 1341 1339 1340 1341 1341 1340 1341 1343 1346 1346 1343 1344 1339
1429 1427 1424 1422 1420 1417 1415 1414 1411 1409 1406 1403 1399 1396 1393 1389 1386 1383 1380 1375 1370 1365 1360 1356 1351 1347 1343 1338 1335 1335 1334 1329 1331 1331 1331 1333 1334 1334 1335 1336 1336 1335 1334
1424 1422 1420 1418 1415 1413 1412 1411 1409 1406 1402 1399 1395 1391 1388 1385 1381 1378 1375 1370 1365 1359 1354 1349 1345 1341 1337 1332 1329 1325 1322 1323 1323 1323 1323 1324 1325 1326 1326 1327 1327 1327 1327
1420 1418 1416 1413 1412 1411 1409 1407 1405 1402 1399 1394 1391 1387 1385 1381 1377 1373 1370 1366 1361 1355 1349 1344 1340 1335 1331 1326 1321 1318 1317 1314 1313 1313 1315 1316 1317 1318 1319 1319 1320 1319 1319
1416 1414 1412 1410 1409 1408 1406 1404 1401 1398 1395 1391 1388 1383 1380 1376 1372 1368 1364 1360 1356 1351 1345 1340 1334 1330 1325 1320 1316 1312 1309 1308 1306 1306 1306 1306 1308 1310 1313 1314 1314 1314 1314
1413 1411 1409 1407 1406 1404 1402 1400 1398 1394 1391 1388 1384 1380 1375 1371 1367 1363 1358 1354 1349 1344 1339 1334 1329 1325 1321 1317 1312 1308 1305 1303 1302 1301 1300 1299 1301 1303 1305 1308 1309 1310 1310
1410 1408 1406 1405 1402 1400 1398 1396 1394 1391 1389 1385 1381 1377 1372 1368 1363 1360 1355 1350 1345 1341 1335 1330 1325 1321 1317 1313 1310 1306 1303 1300 1298 1296 1295 1293 1294 1296 1297 1299 1302 1303 1304
1407 1405 1404 1402 1399 1396 1393 1390 1390 1388 1385 1382 1378 1375 1370 1365 1361 1356 1351 1346 1342 1337 1331 1327 1323 1319 1315 1311 1308 1304 1301 1298 1295 1292 1290 1289 1289 1288 1290 1291 1293 1294 1296
1404 1403 1401 1400 1397 1393 1391 1388 1383 1381 1379 1377 1374 1370 1366 1362 1357 1352 1347 1342 1337 1333 1329 1325 1321 1317 1313 1309 1306 1302 1299 1296 1293 1290 1288 1286 1284 1283 1284 1285 1285 1287 1290
1402 1401 1399 1397 1394 1391 1388 1386 1383 1379 1374 1370 1369 1366 1362 1358 1353 1348 1343 1337 1332 1329 1326 1323 1319 1315 1311 1308 1304 1300 1297 1293 1290 1288 1285 1283 1282 1281 1280 1280 1280 1279 1280
1400 1398 1397 1394 1391 1389 1386 1383 1380 1377 1374 1369 1365 1362 1358 1353 1350 1344 1340 1335 1331 1327 1324 1320 1317 1313 1309 1306 1302 1299 1295 1291 1289 1286 1283 1281 1279 1278 1277 1276 1275 1274 1273
1398 1397 1395 1391 1388 1385 1383 1380 1377 1374 1371 1367 1363 1358 1353 1350 1345 1340 1336 1333 1329 1325 1321 1318 1314 1310 1307 1303 1300 1296 1293 1289 1286 1283 1280 1278 1276 1274 1272 1271 1270 1270 1267
1396 1394 1392 1388 1386 1383 1380 1378 1375 1372 1369 1365 1361 1356 1353 1350 1344 1339 1334 1330 1327 1323 1319 1316 1312 1308 1305 1301 1297 1294 1290 1286 1283 1280 1277 1274 1272 1269 1268 1266 1264 1263 1262
1394 1391 1388 1385 1382 1380 1378 1376 1374 1370 1367 1364 1359 1355 1351 1346 1342 1337 1332 1328 1324 1321 1318 1314 1310 1306 1303 1299 1294 1290 1286 1282 1278 1275 1271 1268 1266 1263 1260 1259 1257 1256 1255
1392 1388 1385 1383 1380 1378 1376 1374 1372 1369 1366 1363 1358 1354 1349 1344 1340 1335 1331 1326 1322 1319 1316 1312 1308 1303 1300 1295 1292 1287 1282 1278 1274 1270 1265 1261 1258 1255 1253 1250 1249 1247 1246
1389 1386 1382 1380 1378 1376 1375 1372 1370 1368 1365 1361 1357 1352 1348 1343 1338 1333 1329 1325 1320 1317 1313 1309 1305 1301 1296 1292 1288 1284 1279 1274 1268 1264 1260 1255 1251 1248 1244 1240 1238 1237 1235
1386 1383 1380 1378 1376 1374 1373 1371 1369 1366 1363 1360 1355 1350 1346 1341 1336 1331 1326 1322 1318 1314 1310 1306 1302 1297 1293 1288 1284 1280 1274 1268 1264 1259 1253 1248 1244 1239 1234 1229 1226 1223 1223
1383 1381 1378 1376 1374 1372 1370 1369 1367 1364 1361 1357 1353 1349 1344 1339 1334 1329 1324 1319 1314 1310 1306 1302 1298 1293 1289 1284 1280 1275 1269 1263 1258 1252 1247 1240 1234 1228 1222 1217 1213 1210 1209